TimeEET,TemperatureF,Dew PointF,Humidity,Sea Level PressureIn,VisibilityMPH,Wind Direction,Wind SpeedMPH,Gust SpeedMPH,PrecipitationIn,Events,Conditions,WindDirDegrees,DateUTC
12:00 AM,80.6,42.8,26,29.95,-9999.0,NNW,4.6,-,N/A,,Clear,330,2013-09-25 22:00:00
1:00 AM,78.8,42.8,28,29.95,-9999.0,NW,4.6,-,N/A,,Clear,320,2013-09-25 23:00:00
2:00 AM,78,45,21,29.92,6,NW,5.8,,,,,320,2013-09-26 00:00:00
2:00 AM,78.8,44.6,30,29.95,-9999.0,NW,5.8,-,N/A,,Clear,320,2013-09-26 00:00:00
3:00 AM,77.0,46.4,34,29.92,-9999.0,NW,4.6,-,N/A,,Clear,320,2013-09-26 01:00:00
4:00 AM,77.0,46.4,34,29.92,-9999.0,NW,4.6,-,N/A,,Clear,320,2013-09-26 02:00:00
5:00 AM,75.2,44.6,34,29.95,-9999.0,NNW,5.8,-,N/A,,Clear,340,2013-09-26 03:00:00
6:00 AM,73.4,44.6,36,29.95,-9999.0,North,6.9,-,N/A,,Clear,350,2013-09-26 04:00:00
7:00 AM,75.2,44.6,34,29.98,-9999.0,North,5.8,-,N/A,,Clear,360,2013-09-26 05:00:00
8:00 AM,79,44,19,29.96,6,North,6.9,,,,,350,2013-09-26 06:00:00
8:00 AM,78.8,44.6,30,29.98,-9999.0,North,6.9,-,N/A,,Clear,350,2013-09-26 06:00:00
9:00 AM,82.4,44.6,26,29.98,-9999.0,North,9.2,-,N/A,,Clear,360,2013-09-26 07:00:00
10:00 AM,86.0,42.8,22,29.98,-9999.0,North,10.4,-,N/A,,Clear,360,2013-09-26 08:00:00
11:00 AM,89.6,44.6,21,29.95,-9999.0,NNE,9.2,-,N/A,,Clear,20,2013-09-26 09:00:00
12:00 PM,91.4,44.6,20,29.92,-9999.0,North,6.9,-,N/A,,Clear,350,2013-09-26 10:00:00
1:00 PM,93.2,42.8,17,29.89,-9999.0,NNE,6.9,-,N/A,,Clear,20,2013-09-26 11:00:00
2:00 PM,95,43,9,29.83,6,North,5.8,,,,,10,2013-09-26 12:00:00
2:00 PM,95.0,42.8,16,29.86,-9999.0,North,5.8,-,N/A,,Clear,10,2013-09-26 12:00:00
3:00 PM,95.0,42.8,16,29.86,-9999.0,NNW,6.9,-,N/A,,Clear,340,2013-09-26 13:00:00
4:00 PM,95.0,42.8,16,29.83,-9999.0,North,5.8,-,N/A,,Clear,350,2013-09-26 14:00:00
5:00 PM,93.2,41.0,16,29.83,-9999.0,NNW,8.1,-,N/A,,Clear,340,2013-09-26 15:00:00
6:00 PM,91.4,39.2,16,29.83,-9999.0,North,8.1,-,N/A,,Clear,350,2013-09-26 16:00:00
7:00 PM,89.6,39.2,17,29.83,-9999.0,North,6.9,-,N/A,,Clear,350,2013-09-26 17:00:00
8:00 PM,87,39,10,29.83,6,North,5.8,,,,,350,2013-09-26 18:00:00
8:00 PM,87.8,39.2,18,29.86,-9999.0,North,5.8,-,N/A,,Clear,350,2013-09-26 18:00:00
9:00 PM,84.2,37.4,19,29.86,-9999.0,NW,3.5,-,N/A,,Clear,310,2013-09-26 19:00:00
10:00 PM,82.4,37.4,20,29.89,-9999.0,NNW,3.5,-,N/A,,Clear,330,2013-09-26 20:00:00
11:00 PM,80.6,37.4,21,29.86,-9999.0,NNW,6.9,-,N/A,,Clear,330,2013-09-26 21:00:00